Location: Unspecified
(43.4354°N, 0.0000°E)
Time: 00:49:46
(UTC+00:00)

Transit 2A - Pass Details

Date: 25 June 2019
Orbit: 596 x 962 km, 66.7° (Epoch: 18 August)

Event Time Altitude Azimuth Distance (km) Brightness Sun altitude
Rises 05:43:32 0° 334° (NNW) 3,523 9.4 12.6°
Reaches altitude 10° 05:48:56 10° 14° (NNE) 2,475 9.2 13.5°
Maximum altitude 05:49:53 10° 24° (NNE) 2,426 9.4 13.7°
Drops below altitude 10° 05:50:50 10° 33° (NNE) 2,432 9.6 13.8°
Sets 05:55:49 0° 74° (ENE) 3,239 11.2 14.7°
